Regional Weather Roundup
Issued by NWS Cleveland, OH

Home | Current Version | Previous Version | Text Only | Print | Product List | Glossary Off
Versions: 1 2 3 4 5 6 7 8 9 10 11 12 13 14 15 16 17 18 19 20 21 22 23 24 25 26 27 28 29 30 31 32 33 34 35 36 37 38 39 40 41 42 43 44 45 46 47 48 49 50

000
ASUS41 KCLE 281500
RWRCLE
OHIO REGIONAL WEATHER ROUNDUP
NATIONAL WEATHER SERVICE WILMINGTON, OH
1100 AM EDT TUE APR 28 2015

NOTE: "FAIR" INDICATES FEW OR NO CLOUDS BELOW 12,000 FEET WITH NO
SIGNIFICANT WEATHER AND/OR OBSTRUCTIONS TO VISIBILITY.

OHZ001>008-015>018-024>027-034-035-043-044-281600-
   NORTHWEST OHIO

CITY           SKY/WX    TMP DP  RH WIND       PRES   REMARKS
DEFIANCE       SUNNY     54  36  50 VRB6      30.15F
FINDLAY        SUNNY     53  38  56 N8        30.14S
TOLEDO EXPRESS SUNNY     53  34  48 N9        30.14F
TOLEDO EXEC    SUNNY     53  34  48 VRB6      30.15F
LIMA           SUNNY     51  36  56 N9        30.14F
$$

OHZ009>014-019>023-028>033-038-089-281600-
   NORTHEAST OHIO

CITY           SKY/WX    TMP DP  RH WIND       PRES   REMARKS
CLE-HOPKINS    MOSUNNY   49  38  65 N9        30.15S
CLE-LAKEFRONT  SUNNY     44  37  76 W6        30.13R
CUY CO. ARPT   MOSUNNY   48  39  71 NW8       30.13R
LORAIN-ELYRIA  SUNNY     49  38  65 N8        30.13S
ASHTABULA      SUNNY     49  36  61 N8        30.10S
AKRON-CANTON   MOSUNNY   53  34  48 NW10      30.10S
WOOSTER        NOT AVBL
MANSFIELD      SUNNY     51  35  54 NW12      30.12S
YOUNGSTOWN     MOSUNNY   50  36  58 W9        30.08S
$$

OHZ042-051>053-060>062-070>072-077>081-281600-
  SOUTHWEST OHIO

CITY           SKY/WX    TMP DP  RH WIND       PRES   REMARKS
CINC-COVINGTON MOSUNNY   53  36  52 NE9G17    30.12S
CINC-LUNKEN      N/A     54  40  59 E7        30.14S
HAMILTON       SUNNY     54  39  57 NE9       30.14F
DAYTON         NOT AVBL
WRIGHT-PAT AFB NOT AVBL
DAYTON GENERAL SUNNY     52  36  54 E9        30.12F
WILMINGTON     SUNNY     51  37  58 NE7       30.12F
$$

OHZ036-037-039>041-045>050-054>059-063>069-073>076-082>088-281600-
  CENTRAL AND SOUTHEAST OHIO

CITY           SKY/WX    TMP DP  RH WIND       PRES   REMARKS
COLUMBUS       SUNNY     52  35  52 N10       30.12F
OSU AIRPORT    SUNNY     52  36  54 N9        30.12F
BOLTON FIELD   NOT AVBL
RICKENBACK AFB NOT AVBL
NEWARK         SUNNY     53  35  50 CALM      30.11S
MARION         SUNNY     52  35  52 N12       30.13F
LANCASTER      SUNNY     52  37  56 VRB3      30.12F
ZANESVILLE     SUNNY     51  35  54 NE5       30.11S
NEW PHILLY     SUNNY     53  35  50 N10       30.11S
$$


USA.gov is the U.S. government's official web portal to all federal, state and local government web resources and services.